Wind_Speed
48 51 51 45 42 41 38 35 34 34 32 28 28 31 32 32 32 32 32 31 31 31 31 31 31 30 28 25 24 24 22 20 19 18 17 16 16 15 14 13 11 10 11 11 10 9 10 12 12 11 12 14 14 13 11 11 12 13 12 11 11 10 10 9 9 9 7 7 8 9 10 11 12 12 13 14 15 17 18 20 22 24 25 25 26
53 54 52 49 48 48 46 42 41 42 41 35 31 32 35 35 35 34 33 32 31 31 31 31 31 29 27 26 25 24 22 20 19 17 16 16 15 15 15 13 12 11 11 11 10 10 10 12 12 11 12 14 14 11 10 10 11 11 10 11 11 10 10 10 9 8 7 7 8 9 10 10 11 12 13 14 15 17 19 21 23 24 25 26 27
57 56 55 54 53 54 52 48 45 42 39 37 35 35 36 37 37 37 35 32 31 32 32 32 31 28 26 27 26 25 23 20 18 17 15 15 15 14 14 13 12 12 12 12 11 11 11 13 13 13 13 14 13 10 9 10 10 10 10 11 11 10 10 10 8 7 6 7 9 10 10 11 11 13 14 15 16 18 19 21 24 25 26 27 28
60 59 58 58 57 56 53 50 46 40 37 38 39 38 37 38 38 38 36 34 33 33 34 33 30 27 27 28 27 26 23 19 18 17 15 15 15 15 14 13 13 14 14 14 13 13 13 13 14 14 14 14 13 11 10 10 11 11 11 11 11 10 9 9 7 6 6 7 9 10 11 11 12 13 15 16 17 18 20 22 24 26 27 27 28
62 61 60 58 57 55 53 50 45 40 39 41 41 38 37 38 38 38 37 34 34 34 34 33 30 28 27 28 28 26 22 19 18 17 16 16 17 16 14 14 14 14 14 14 14 15 14 14 15 16 15 15 14 13 12 12 11 10 10 10 10 9 8 7 7 7 8 8 10 10 11 12 13 14 16 17 17 18 20 23 25 26 27 27 28
62 61 60 59 58 56 54 51 46 41 40 40 39 37 36 36 37 37 35 34 34 34 34 33 31 28 27 28 28 25 21 19 18 17 17 17 17 17 16 15 14 15 14 13 13 15 15 15 15 16 16 15 15 15 14 13 11 9 9 9 9 8 8 7 7 8 9 9 10 11 12 12 14 15 17 17 18 19 21 23 25 26 27 28 28
62 62 61 61 58 54 53 49 44 41 38 36 35 34 34 34 35 34 32 32 33 33 33 33 31 28 27 28 27 23 21 19 18 17 18 18 18 17 16 15 16 16 15 14 14 14 15 14 15 16 16 15 16 15 14 14 11 9 9 10 10 9 8 8 8 9 10 10 10 12 13 13 15 16 17 18 19 20 22 24 25 26 27 28 28
63 63 62 61 56 53 51 47 42 38 35 34 32 30 30 30 31 30 29 30 31 30 31 31 30 28 28 27 25 22 20 19 18 18 19 19 18 17 16 15 16 16 16 15 15 14 14 14 15 16 17 16 16 16 15 14 12 11 10 10 11 10 10 9 9 9 11 11 11 12 13 14 16 17 18 18 20 21 22 24 25 26 27 28 29
63 63 62 59 55 52 49 44 41 38 35 33 29 26 26 26 27 28 27 29 29 29 30 30 28 28 27 26 23 21 21 19 19 19 20 19 18 17 15 15 16 17 16 16 14 14 14 14 15 16 16 16 15 16 15 14 12 11 11 10 11 12 11 10 10 11 12 12 12 12 13 15 16 17 18 18 19 21 22 24 26 27 27 27 29
64 63 61 58 54 51 47 44 42 39 35 33 29 25 24 24 25 26 27 28 29 29 30 29 28 27 26 24 23 21 21 20 19 19 19 18 17 16 16 16 17 16 16 15 14 14 14 14 15 15 16 16 15 17 16 13 12 11 11 11 12 13 12 12 12 13 13 13 13 13 13 15 16 17 18 18 19 21 22 24 26 27 27 28 29
62 61 59 55 52 49 46 45 42 38 35 33 29 25 23 23 23 25 27 27 28 29 29 28 27 26 24 23 21 21 20 19 18 18 18 17 17 16 16 16 16 16 15 15 15 15 15 15 15 15 17 17 16 17 16 14 12 11 12 13 13 14 13 13 14 14 14 13 13 13 14 15 16 17 18 19 20 21 22 24 25 27 27 28 29
59 58 55 52 50 48 46 44 40 36 34 31 28 26 25 23 23 25 26 26 27 27 27 26 25 24 22 21 20 20 20 19 18 17 17 17 16 15 15 15 16 16 16 16 15 15 15 15 16 15 16 18 17 17 16 15 13 13 13 14 15 14 14 15 15 15 14 14 14 14 15 16 17 17 18 19 20 21 22 24 25 27 28 28 29
57 56 54 51 49 46 43 41 36 33 31 30 28 28 27 25 24 25 25 26 26 26 25 24 22 22 21 20 20 20 19 18 18 16 16 16 15 15 15 15 16 16 16 15 15 15 15 15 15 13 14 17 17 17 18 16 14 14 15 16 16 15 15 16 16 15 15 15 14 15 16 17 18 18 19 20 21 22 23 25 26 27 28 28 29
56 54 52 50 48 45 41 38 34 31 30 29 28 29 29 26 25 25 25 25 25 24 23 21 21 21 20 20 20 20 20 18 17 16 16 16 15 15 15 15 16 16 15 14 14 15 14 13 14 14 15 17 17 18 19 18 16 16 16 17 17 16 17 18 17 16 15 15 15 16 17 18 19 20 21 22 23 23 24 26 26 27 29 29 30
55 54 52 49 47 43 39 37 34 31 30 28 28 29 28 27 26 26 26 26 25 24 21 20 20 21 20 20 21 20 19 18 17 17 16 15 14 14 14 14 15 15 14 15 16 16 15 14 14 15 17 18 19 20 20 19 18 17 17 17 17 17 18 19 17 16 16 16 16 17 18 19 20 21 21 22 23 25 26 27 27 28 29 30 31
55 54 51 49 45 42 40 38 34 31 30 29 28 28 27 27 28 28 28 27 25 23 20 19 20 21 21 21 21 20 19 18 18 17 16 14 14 14 14 14 15 15 15 16 17 17 16 14 14 15 17 19 20 20 20 19 18 17 17 17 18 18 19 19 18 17 17 17 17 18 19 20 21 22 22 23 24 25 26 28 28 29 30 31 32
53 51 49 46 44 43 40 37 34 32 30 29 27 26 26 28 30 30 29 26 25 23 20 20 21 22 21 21 21 20 19 19 18 17 15 14 14 14 14 15 15 14 15 16 17 17 16 14 13 15 17 19 20 20 19 18 17 16 17 18 18 19 20 20 18 18 18 17 18 19 20 21 22 23 23 24 25 26 27 28 29 30 30 31 32
49 47 46 43 43 42 39 36 33 31 29 28 26 26 28 30 32 31 28 25 24 24 21 20 22 22 22 22 21 20 19 19 18 16 15 14 14 14 15 15 14 14 15 15 16 16 14 13 13 15 16 18 19 19 19 17 16 17 17 17 18 20 21 20 19 19 18 18 19 20 21 22 23 24 24 25 26 27 28 29 30 30 31 32 33
47 45 42 41 42 42 39 36 33 31 30 28 28 29 30 32 32 31 28 25 25 24 22 21 22 23 22 22 21 19 19 19 18 16 15 14 14 14 15 15 13 13 14 15 15 14 13 13 13 14 15 17 18 19 19 17 17 17 17 18 19 21 21 21 20 20 20 20 20 21 22 23 24 25 25 26 27 28 28 29 30 31 32 33 34
46 43 39 38 40 40 38 36 34 32 30 29 30 30 31 32 32 30 27 25 25 24 21 21 22 23 23 22 21 20 19 19 18 16 15 15 14 15 15 14 13 13 14 14 14 14 13 12 13 14 15 17 18 19 19 18 17 17 18 18 19 21 21 21 21 21 21 21 21 22 23 24 25 26 27 27 28 28 29 30 30 31 33 33 34
42 39 35 35 37 38 37 37 35 34 32 32 32 31 31 32 31 29 26 25 25 23 21 21 23 23 23 22 21 20 19 19 17 16 16 15 15 15 15 14 13 13 13 14 14 14 14 13 13 15 17 18 19 19 19 18 17 17 18 19 20 21 21 22 22 22 23 23 23 23 24 25 27 28 28 29 29 30 30 30 31 32 33 34 34
38 35 32 31 33 35 37 38 37 35 35 35 34 32 32 31 31 30 27 26 25 23 21 22 24 24 23 23 21 20 19 18 17 17 16 16 15 15 15 14 14 14 14 14 15 15 15 15 16 18 19 20 20 19 18 17 17 17 17 18 19 20 22 22 23 23 24 24 25 26 26 27 28 29 30 30 31 31 32 32 32 33 34 35 35
34 32 30 30 31 33 35 36 35 35 36 36 35 33 31 30 31 32 29 27 26 23 22 23 24 25 24 23 21 20 19 18 18 17 17 16 16 15 15 15 15 15 15 15 15 15 16 16 17 18 19 19 19 18 17 16 15 15 16 17 19 21 22 23 23 24 25 26 27 28 28 29 30 31 32 32 33 34 34 34 34 34 35 35 36
32 29 29 29 30 32 34 35 35 36 37 37 35 33 31 30 32 32 30 28 27 24 22 23 24 25 25 23 21 20 19 19 18 17 17 16 16 15 15 15 15 15 16 16 16 16 16 16 16 16 17 17 17 17 16 14 14 15 16 17 19 21 22 23 24 25 26 27 28 29 30 31 32 33 33 34 35 36 36 36 36 36 36 36 37
29 27 27 28 30 33 35 36 37 38 37 36 34 32 30 31 32 32 31 30 27 24 23 23 25 26 25 23 21 20 19 19 18 17 17 17 16 15 15 16 16 16 16 16 16 16 16 15 15 14 15 16 16 16 15 15 15 15 16 18 20 22 22 23 24 26 27 28 29 31 32 33 34 35 35 36 37 38 39 39 39 38 38 37 38
27 25 26 27 29 33 35 37 38 39 37 36 34 32 31 31 31 32 32 30 27 24 22 24 26 26 25 23 21 20 19 18 18 17 17 18 16 15 16 17 17 17 17 17 17 16 15 14 13 13 14 15 16 16 16 16 16 16 18 20 22 22 23 24 25 26 27 29 30 32 34 35 36 37 37 38 39 40 41 41 41 41 40 39 39
25 24 25 26 29 33 35 37 38 38 37 35 33 32 32 31 31 32 31 29 27 24 23 25 26 26 25 23 21 20 19 18 18 17 18 18 17 17 17 17 17 18 18 18 17 16 14 12 12 13 14 15 15 16 16 17 17 18 19 21 23 24 24 25 26 27 28 30 32 33 35 36 37 38 39 40 41 42 43 43 43 43 42 41 41
25 26 26 27 29 30 32 35 36 37 36 35 34 34 33 32 32 32 30 28 26 24 24 25 26 26 25 23 21 20 19 18 17 17 18 19 18 18 18 17 17 18 19 19 17 15 13 12 12 13 14 15 15 16 17 18 18 20 21 23 24 25 26 27 28 28 29 31 33 35 36 38 39 40 41 41 42 43 43 44 45 45 44 43 42
28 29 29 30 28 27 28 31 34 35 36 35 35 34 32 31 32 32 31 29 26 24 25 26 27 26 25 22 21 20 18 17 17 17 18 19 20 19 19 17 18 19 20 19 17 15 13 12 12 13 14 15 16 17 18 19 20 21 22 24 26 27 27 28 29 30 32 34 35 36 38 39 40 41 42 42 42 43 44 45 46 47 46 45 44
28 29 30 31 29 27 27 30 32 34 35 35 35 33 31 30 32 32 30 28 25 25 26 27 27 26 24 22 21 19 18 17 17 18 19 20 20 20 19 18 18 20 20 19 17 15 14 14 14 15 16 17 17 18 19 21 22 23 24 25 27 28 29 30 31 32 34 37 38 39 40 41 42 43 43 42 42 42 43 44 45 48 48 46 45
28 28 30 31 31 30 30 31 32 33 34 35 34 33 31 31 32 32 29 26 25 25 26 27 28 26 24 22 21 20 19 18 18 18 19 20 20 19 19 18 19 20 20 19 17 16 16 16 16 17 18 19 20 21 22 23 25 25 26 28 29 30 31 31 33 34 37 39 40 41 42 43 45 45 44 43 41 41 40 41 43 47 49 48 47
31 31 30 31 33 34 34 34 33 34 34 35 35 33 32 32 32 31 30 27 26 26 27 28 28 27 24 22 21 20 20 19 19 20 20 20 19 19 19 19 19 20 20 19 18 18 18 18 19 19 20 21 22 23 24 25 26 27 28 29 30 31 31 32 33 34 37 38 40 41 41 41 42 44 45 45 42 40 39 40 43 47 49 50 50
33 33 32 32 33 34 34 33 34 35 35 34 33 33 32 32 31 31 30 28 27 28 29 29 29 27 24 22 21 21 21 20 20 20 21 20 19 19 19 20 19 20 20 20 20 20 20 20 21 22 22 23 24 25 25 26 28 28 29 29 30 30 31 31 32 33 35 36 38 40 40 39 40 43 47 47 44 41 40 41 43 45 48 50 48
35 33 34 34 33 32 32 32 34 35 35 34 33 33 33 32 32 31 31 30 30 30 30 30 29 26 24 22 22 22 21 21 21 21 21 20 19 19 20 20 20 20 21 21 21 21 22 23 23 24 24 25 26 27 27 28 29 29 29 30 30 30 30 31 32 32 33 34 36 39 40 40 42 44 47 49 45 41 41 42 43 45 48 46 40
38 37 36 34 34 33 32 32 32 34 34 34 34 35 34 34 32 32 32 32 32 32 32 30 28 26 24 23 22 22 22 22 22 22 21 19 19 20 20 21 21 21 21 22 22 23 24 25 26 26 26 27 27 28 29 30 30 30 30 30 31 31 31 31 30 30 31 33 35 36 36 36 38 39 42 45 42 40 42 44 44 46 46 40 34
37 38 36 34 34 33 32 31 31 32 33 34 35 35 35 34 33 33 33 34 34 34 32 30 28 26 24 23 23 23 23 22 22 21 20 18 19 20 21 21 22 22 23 24 24 25 26 27 28 28 28 28 28 28 30 31 31 31 31 30 30 30 30 30 30 31 32 33 34 35 35 35 36 37 38 38 37 38 41 43 44 44 42 37 36
36 37 36 36 34 32 32 32 32 33 34 36 37 37 36 35 34 34 34 34 35 34 31 29 27 26 25 24 24 23 23 23 22 21 19 19 19 20 20 21 22 24 25 26 27 27 28 29 30 30 29 29 29 30 31 31 31 31 31 30 29 29 30 31 32 33 34 34 36 37 37 36 36 37 36 36 35 37 40 42 43 42 40 38 38
39 40 38 36 34 33 34 34 34 34 36 37 38 37 37 36 35 34 34 35 36 33 30 29 27 26 25 25 25 24 24 23 22 21 21 20 20 20 21 22 24 25 27 28 29 29 30 31 31 31 31 31 31 31 31 32 32 31 30 30 30 31 33 34 35 36 36 36 37 38 38 36 36 37 37 37 37 38 41 41 40 38 37 37 38
35 35 33 32 31 31 33 34 35 36 37 37 38 38 37 36 35 34 35 37 35 32 29 28 27 26 26 26 26 25 24 23 21 21 22 23 22 21 21 23 25 27 28 29 30 30 31 32 32 32 32 32 31 31 31 32 31 30 30 31 33 35 36 37 37 37 37 38 39 39 39 38 37 37 37 38 38 39 40 39 37 35 35 37 39
30 31 31 30 30 30 30 30 32 34 36 38 39 39 38 36 34 35 37 37 34 31 30 29 28 28 28 27 26 24 23 23 22 21 21 23 24 23 22 24 26 28 28 29 30 31 32 33 33 33 33 32 31 30 31 31 31 31 31 33 36 37 39 39 37 36 36 38 39 40 39 38 38 38 38 39 39 38 38 37 37 37 38 39 40
29 30 30 29 28 29 28 28 28 31 36 39 39 39 38 36 35 36 37 35 32 31 32 31 30 30 29 27 26 24 24 24 22 20 20 21 22 24 25 26 27 28 29 30 31 31 32 32 32 32 32 32 31 30 30 31 32 33 34 36 38 39 40 38 35 34 36 37 39 39 39 38 38 39 39 40 39 37 38 39 39 40 40 40 39
25 27 28 28 27 28 29 30 30 31 34 37 38 38 37 36 36 36 35 34 32 32 33 33 32 30 29 28 27 26 25 23 21 20 21 21 22 25 26 27 28 29 30 31 30 30 30 30 30 31 31 31 30 30 31 32 33 35 37 39 40 40 39 37 35 35 36 36 37 38 38 37 39 39 39 39 39 38 39 40 40 40 39 38 38
22 23 26 27 28 29 31 32 32 33 34 36 37 37 37 37 37 36 35 34 34 34 35 34 32 30 29 28 28 27 24 22 21 22 23 24 25 26 27 28 30 30 30 29 28 27 27 28 29 29 30 30 31 32 33 34 36 38 39 40 40 40 39 38 37 36 35 35 36 36 37 38 39 39 39 39 39 39 39 39 39 38 38 38 39
22 23 26 28 30 32 34 35 36 35 36 37 37 38 39 39 38 37 36 35 36 36 35 33 31 30 30 30 30 27 24 22 23 24 25 26 27 28 28 29 30 30 29 28 27 27 27 27 28 29 30 32 33 35 36 37 39 41 40 40 40 40 39 38 35 32 32 34 36 36 37 38 38 38 38 38 39 40 40 40 40 40 39 39 39
24 25 28 30 33 35 37 39 40 39 38 39 40 40 41 41 40 39 38 37 37 37 35 32 30 29 29 30 30 26 24 23 25 26 26 27 28 28 28 29 29 29 28 27 27 27 28 28 29 31 33 34 35 37 39 40 41 42 41 40 39 39 39 37 34 33 35 37 36 36 36 37 38 38 39 39 39 40 40 41 42 42 41 40 40
27 28 31 33 35 37 40 42 42 41 41 41 42 44 44 43 42 41 40 39 38 37 34 31 30 29 29 29 28 25 24 24 25 26 26 26 27 27 27 28 28 28 28 28 29 29 30 30 32 34 35 37 37 38 40 42 42 41 40 38 37 37 37 37 36 36 38 38 36 35 36 37 39 39 39 39 40 40 39 40 41 41 41 41 41
26 25 30 36 37 38 41 44 44 44 45 46 48 49 47 45 43 43 42 40 37 35 32 29 29 28 29 28 27 25 24 25 25 25 25 25 26 27 28 28 29 30 30 31 32 32 32 33 35 36 38 39 39 40 41 41 41 39 37 35 33 34 34 35 36 37 37 37 36 36 37 38 39 39 39 39 39 39 38 38 39 40 40 40 40
26 24 25 34 40 42 43 45 46 46 47 49 49 48 46 45 43 42 40 37 35 33 31 29 28 27 27 27 26 25 24 24 24 24 25 25 26 28 29 30 31 32 33 34 34 35 36 36 37 38 39 39 39 39 39 39 38 36 34 32 31 32 32 34 35 36 37 37 36 36 37 38 39 39 39 39 39 39 38 37 38 38 39 39 39
28 27 26 30 37 42 42 42 44 46 46 47 46 44 42 41 40 38 36 34 32 31 30 29 27 26 25 25 24 24 24 24 24 24 26 27 29 30 31 32 34 35 36 36 36 37 37 38 38 38 38 38 37 37 36 36 36 34 32 31 31 32 33 34 36 37 37 37 36 36 36 37 38 38 38 38 38 38 38 37 37 38 38 39 39
28 30 31 30 33 39 41 40 42 45 45 44 44 42 39 36 35 33 32 31 30 29 28 27 25 25 24 23 23 24 24 24 25 27 29 30 32 33 33 34 35 36 36 36 37 37 37 37 37 37 36 35 35 34 34 34 34 33 32 31 32 33 34 35 36 37 37 36 35 35 35 36 37 37 37 37 37 38 38 38 38 39 39 39 40
30 32 34 33 33 37 40 40 42 43 41 40 40 38 33 31 30 29 28 28 27 27 26 25 24 24 24 23 24 24 25 27 28 30 31 32 33 33 33 34 34 35 36 36 37 37 37 37 36 35 34 33 32 33 33 33 33 33 32 32 33 34 35 35 36 36 36 35 34 35 35 36 36 36 37 38 38 38 39 39 39 40 40 40 41
Wind_Direction
236 239 241 243 241 236 234 234 239 246 251 261 271 270 269 269 268 271 274 276 279 280 281 285 286 287 291 294 296 296 294 292 287 287 291 294 298 299 296 292 287 286 285 285 285 289 297 297 292 292 293 292 292 295 302 305 301 300 303 304 302 298 298 302 304 301 296 292 292 295 300 308 313 314 315 318 322 325 327 329 330 329 329 328 328
235 237 237 238 242 244 242 239 242 249 251 258 272 273 269 269 270 271 274 277 278 278 279 283 285 287 291 293 294 293 291 288 285 285 289 294 298 301 298 291 285 282 281 280 277 276 282 285 283 283 285 285 285 287 296 302 300 299 303 303 298 296 296 298 297 289 283 283 288 294 301 307 311 311 313 317 320 323 326 329 330 330 330 329 329
235 237 238 239 243 248 250 250 249 251 251 256 270 275 270 270 270 271 273 274 275 274 276 282 285 287 289 291 291 290 287 285 282 282 285 291 298 302 298 291 285 283 282 280 275 270 271 275 278 283 285 281 278 282 297 301 294 293 302 305 301 296 293 291 285 275 274 282 289 296 302 306 309 310 311 315 318 322 327 329 330 330 331 330 328
236 237 239 243 246 249 252 254 253 253 253 258 269 274 270 268 268 269 271 271 271 272 274 279 285 286 286 289 288 286 284 281 279 278 283 290 297 301 296 289 286 287 286 282 276 272 270 272 279 287 288 280 276 282 294 295 286 287 299 304 299 290 285 281 274 271 276 285 291 296 301 305 308 308 310 314 317 322 327 330 331 331 331 328 326
236 237 239 242 245 248 251 254 255 257 258 261 269 272 266 264 266 267 268 269 269 271 273 277 281 283 284 286 285 283 281 277 275 278 284 290 295 298 294 288 287 289 290 285 279 276 275 274 281 289 288 280 277 280 285 286 281 283 291 297 294 279 267 264 263 269 277 284 290 293 298 303 305 307 309 312 317 322 328 331 331 330 329 326 323
238 239 240 242 245 248 251 254 256 259 260 263 268 266 261 261 262 264 266 267 267 269 272 274 276 280 281 282 281 279 277 273 274 279 285 289 292 294 293 287 285 286 288 286 283 281 280 278 282 288 286 278 275 277 281 281 278 280 283 285 285 269 250 247 251 262 274 280 286 290 295 300 304 306 309 312 317 324 329 331 330 329 327 324 322
238 240 242 243 245 247 251 254 256 258 260 262 262 260 259 260 260 262 263 263 265 268 269 271 273 276 278 278 277 275 272 272 276 281 284 286 288 289 289 286 283 283 284 285 285 284 282 281 283 286 283 274 271 273 277 277 274 276 277 275 274 264 248 244 246 258 272 277 283 289 295 300 303 305 309 314 319 325 329 329 328 328 327 324 322
237 240 242 244 246 248 251 254 256 257 258 256 256 258 260 259 259 260 260 261 264 265 265 269 272 273 274 275 273 269 269 272 277 280 281 283 284 285 285 284 283 283 283 285 286 285 285 285 285 284 281 274 268 268 273 274 272 272 271 268 264 257 250 247 251 261 269 274 281 288 295 301 303 305 310 316 321 325 326 327 327 327 327 323 322
237 239 242 245 247 249 251 254 256 255 252 250 251 256 258 258 259 260 259 259 261 261 263 268 271 271 272 271 266 263 266 271 274 277 279 281 282 281 280 280 280 280 282 284 284 285 286 287 284 281 280 276 264 263 269 272 271 269 261 255 251 247 245 247 255 261 265 270 277 286 295 300 302 305 311 317 321 322 323 325 326 327 326 324 323
235 238 241 243 245 247 250 252 252 250 246 245 246 250 253 256 259 260 259 258 258 259 263 268 270 269 268 266 261 260 265 270 273 275 277 278 278 277 276 276 275 276 279 280 280 282 283 283 282 278 276 272 260 260 269 270 266 260 252 247 243 241 241 245 253 258 262 268 277 288 296 298 301 306 312 317 318 318 321 324 325 326 326 326 325
232 236 238 240 243 246 248 248 247 244 241 241 244 246 248 251 257 260 259 258 258 259 263 266 267 266 264 261 257 257 263 269 272 274 274 275 274 274 274 273 273 274 275 277 280 282 281 280 282 280 274 268 258 259 267 268 259 254 252 248 241 240 241 245 252 257 263 270 280 291 296 298 301 307 313 316 315 316 319 321 323 326 327 327 326
232 235 237 239 242 243 243 244 244 241 239 240 243 244 245 251 258 261 260 260 259 260 262 263 263 262 260 255 252 255 261 267 270 271 271 271 271 272 272 272 274 275 277 280 283 283 283 281 281 280 274 267 260 258 264 263 255 252 252 248 242 240 242 248 254 259 265 274 284 293 297 299 302 308 312 313 313 315 318 320 323 326 327 327 326
232 235 237 239 240 241 241 244 243 240 239 242 243 243 244 251 258 260 260 259 258 259 259 260 260 259 254 249 248 254 260 265 268 268 267 267 267 268 271 274 276 278 280 283 283 283 283 280 279 276 270 265 261 262 264 258 252 252 251 247 244 241 242 250 256 262 269 277 287 294 298 300 304 308 311 312 313 315 316 318 322 326 327 326 324
234 235 236 237 239 241 243 245 244 241 241 244 243 242 243 248 254 256 257 258 258 258 259 259 258 254 247 244 247 253 258 262 264 264 261 262 264 267 271 274 276 278 281 282 283 283 281 277 276 272 265 261 258 260 262 257 254 255 252 247 245 242 243 250 257 263 271 280 287 294 299 302 305 309 311 312 314 315 315 317 321 325 326 325 324
234 235 236 237 238 241 243 244 244 242 243 243 241 241 242 246 249 250 253 256 257 258 258 258 254 248 242 242 247 252 256 260 261 259 257 258 263 266 270 272 274 276 279 282 284 285 282 275 271 267 262 258 256 256 258 256 255 256 253 248 246 244 245 251 258 264 272 280 288 295 299 303 306 309 311 313 314 314 314 315 319 322 324 324 324
232 234 235 236 237 239 240 240 240 240 241 240 239 240 242 243 244 246 248 252 254 255 256 253 247 242 239 241 247 251 254 257 257 254 254 257 261 265 267 270 273 277 280 283 284 285 282 275 266 260 259 259 259 258 257 256 256 256 253 249 247 247 248 254 260 266 273 282 289 295 299 303 306 308 310 312 313 313 314 315 317 319 321 322 323
231 233 234 236 236 236 235 235 236 237 238 238 239 239 238 237 239 242 245 249 252 253 251 247 243 239 238 242 246 250 253 254 253 251 252 254 257 261 266 270 275 281 284 284 284 283 280 272 262 257 259 261 263 261 259 258 259 258 254 251 250 249 251 257 263 268 275 283 290 295 299 303 305 307 309 311 312 312 313 314 315 317 318 320 321
230 232 233 234 234 233 232 231 232 233 234 236 237 236 232 232 235 239 243 246 247 248 245 242 239 237 238 242 246 249 251 251 249 249 250 251 255 259 264 271 279 285 286 284 282 281 279 271 264 262 263 263 263 261 259 258 260 260 257 253 251 252 256 262 266 270 276 283 289 294 299 302 304 306 308 309 310 311 312 312 314 315 317 318 319
227 227 229 230 230 229 228 228 228 227 230 233 234 232 231 231 233 237 240 241 242 244 242 239 237 237 238 242 246 248 249 247 246 247 249 251 254 258 264 272 282 287 286 284 283 281 279 274 269 268 268 265 261 258 257 259 262 263 260 255 253 256 261 266 269 272 277 282 287 292 297 301 303 305 306 308 309 310 311 311 313 314 315 316 317
222 223 225 227 226 226 226 226 226 225 227 231 232 233 232 232 233 234 236 238 241 242 240 238 237 236 238 241 245 247 246 245 245 246 250 252 253 258 265 273 281 285 285 283 282 280 278 275 272 271 269 266 262 259 260 263 265 264 261 257 256 259 265 269 272 274 276 280 285 290 295 299 302 304 305 306 306 307 308 310 312 313 313 315 315
220 220 223 224 221 220 221 223 224 224 225 227 230 232 233 232 232 232 233 237 240 240 238 236 235 235 238 241 244 246 246 245 245 247 250 252 254 257 264 272 279 283 284 283 280 277 275 273 271 271 270 267 264 263 264 265 264 262 260 257 258 263 268 272 274 275 276 279 283 288 292 296 299 302 304 304 304 304 306 308 310 311 312 313 313
219 218 220 220 215 214 216 219 222 224 225 227 230 232 233 233 232 231 232 235 239 238 235 234 233 234 237 240 242 245 246 246 247 249 252 252 254 257 262 270 278 282 284 283 281 279 276 273 271 270 269 266 265 265 266 264 260 257 256 258 263 267 271 274 275 275 277 280 283 286 290 293 296 299 301 302 303 302 303 305 307 309 310 311 312
215 214 217 217 214 213 215 218 222 224 225 226 230 233 234 234 233 232 231 233 235 235 234 233 232 233 236 239 242 244 246 248 249 251 252 253 254 257 263 270 276 281 283 283 284 285 282 277 272 269 267 265 265 265 264 261 256 254 256 262 268 272 275 276 277 279 281 282 283 286 288 291 293 296 298 300 301 300 301 302 304 306 308 310 310
208 208 214 215 214 215 216 217 220 223 224 225 228 232 235 234 233 231 230 230 232 231 232 232 232 234 237 239 242 244 247 250 251 252 252 253 252 255 263 270 275 279 282 284 287 288 286 280 271 265 263 262 262 262 260 256 253 254 259 267 272 275 279 281 281 282 283 284 285 286 288 289 291 293 296 298 298 298 299 300 301 303 305 307 308
205 205 209 211 214 216 216 216 220 223 225 226 227 231 233 233 232 231 230 229 229 229 231 232 232 234 238 240 242 245 248 250 252 253 252 252 251 252 260 268 272 276 280 284 287 289 287 279 267 259 256 256 257 256 254 252 252 255 262 269 274 278 281 283 284 284 284 284 285 286 286 288 289 291 293 294 295 296 298 298 299 300 301 303 305
200 201 204 208 213 215 213 213 217 222 224 224 226 228 229 229 229 229 228 227 226 228 230 232 233 235 238 241 243 246 248 250 253 253 252 251 249 250 258 265 270 275 280 283 286 288 285 273 259 252 250 251 252 252 251 251 253 258 264 270 274 278 282 283 283 283 284 284 284 284 285 287 288 290 291 291 292 294 296 297 297 298 298 300 302
198 201 203 205 210 211 208 209 214 217 219 221 223 225 226 226 227 227 226 225 224 226 229 231 233 236 239 242 244 246 248 251 254 254 250 248 247 250 256 263 269 274 278 280 282 284 279 265 253 249 249 250 252 252 254 256 258 263 267 271 275 279 282 283 283 284 284 283 283 284 285 286 287 288 289 290 292 294 295 295 296 296 297 298 299
203 207 203 200 205 208 205 207 212 214 215 217 219 221 223 223 225 225 224 223 223 225 228 231 234 236 239 243 244 246 250 252 255 253 248 245 246 250 255 261 268 273 275 276 278 278 273 261 253 251 252 254 255 256 259 262 265 267 270 273 277 280 282 283 284 285 285 283 283 284 285 285 286 287 289 291 292 293 294 295 295 296 296 296 297
206 209 204 197 200 205 205 206 210 212 214 215 217 220 221 221 222 222 220 220 221 223 226 230 233 236 239 242 243 246 250 252 253 251 246 244 247 251 256 261 266 270 271 272 273 272 269 261 257 255 256 258 260 262 265 268 268 270 272 275 278 281 283 284 285 287 286 285 285 285 286 286 287 287 289 291 292 293 293 295 296 296 295 295 295
207 208 205 200 201 206 208 208 210 212 214 216 218 220 220 220 221 220 218 218 218 220 223 228 232 235 238 240 242 245 248 250 251 249 245 245 248 253 257 261 264 266 267 267 267 268 267 264 261 261 262 264 266 268 270 271 271 272 274 276 278 280 283 285 286 287 287 286 287 287 287 287 286 287 288 290 291 292 293 296 298 298 296 295 292
209 209 207 205 206 209 211 210 211 213 215 217 218 218 217 217 218 218 216 215 215 218 222 227 231 234 236 238 241 244 247 248 249 247 245 245 247 253 258 261 261 262 262 261 262 264 265 265 266 267 268 269 270 271 272 273 273 274 275 277 279 281 284 286 287 287 287 288 288 288 288 288 288 288 289 289 289 289 292 297 299 300 300 297 292
214 214 211 208 207 208 209 209 210 212 214 215 216 216 216 216 217 216 213 212 214 217 222 226 229 232 235 237 240 244 247 247 246 246 245 245 247 252 258 259 258 258 258 257 258 261 263 265 267 269 270 271 272 273 274 275 276 277 279 281 283 285 287 288 289 290 291 291 289 288 290 291 290 292 292 289 287 287 290 296 300 303 304 301 293
217 216 211 204 203 206 207 208 210 211 212 214 216 217 217 217 217 215 213 212 215 218 222 225 229 231 234 237 240 244 247 247 245 245 245 245 247 252 255 256 255 255 255 255 256 259 262 264 266 268 270 272 273 275 276 277 278 280 282 284 286 288 290 291 292 293 295 295 291 288 289 290 293 295 294 291 288 287 288 295 301 302 304 303 294
215 214 209 203 204 209 210 209 211 211 211 213 214 214 214 214 214 214 213 214 216 219 223 226 229 231 233 236 240 244 246 246 246 246 246 245 247 251 254 254 254 254 255 256 258 259 262 264 266 268 270 271 273 275 277 278 279 281 283 285 286 288 289 291 292 294 296 298 294 289 288 289 293 295 294 292 291 289 289 294 297 298 300 300 293
211 211 209 208 211 213 211 209 210 210 210 212 212 212 212 212 212 213 213 215 218 220 223 226 229 231 233 236 240 243 245 246 247 247 246 245 246 249 252 253 254 256 258 259 261 261 263 264 266 267 269 270 273 275 276 277 278 280 281 283 285 288 289 291 292 293 295 298 298 295 292 291 291 292 292 292 291 287 286 289 292 295 298 296 288
211 212 211 211 212 211 208 208 209 209 210 212 212 214 214 212 212 213 214 216 219 222 224 227 229 231 233 236 239 241 244 246 247 248 247 245 245 247 251 253 255 258 261 261 262 262 263 265 266 268 270 271 273 274 275 276 278 279 281 283 286 289 291 291 291 293 294 296 298 297 295 293 292 292 292 293 291 286 285 288 292 295 296 290 285
207 208 206 205 205 205 204 205 206 207 210 212 213 214 214 212 212 213 216 219 222 224 225 227 228 230 233 236 238 241 244 247 248 249 247 244 245 247 251 255 257 259 261 262 262 263 264 265 267 269 271 272 273 274 275 276 278 280 283 285 287 289 291 292 293 294 294 294 294 295 294 293 292 292 293 293 292 291 290 292 294 295 292 287 287
203 203 202 202 202 204 205 204 204 206 209 212 213 214 213 212 212 213 217 221 224 224 225 226 226 229 232 235 239 242 245 247 250 252 251 248 249 253 258 262 263 263 262 263 264 265 265 266 268 270 272 273 274 276 277 278 279 281 283 285 288 290 292 293 294 294 293 292 292 292 293 292 289 289 290 291 293 294 293 294 296 296 292 290 292
198 200 203 203 203 206 207 207 208 210 210 212 213 213 212 211 211 213 218 222 223 223 224 225 226 228 232 236 240 244 247 250 254 258 259 255 253 257 265 269 268 266 265 265 266 267 267 268 269 271 272 274 276 277 278 278 279 280 282 285 289 291 292 292 292 292 291 291 291 292 292 291 289 288 289 291 293 294 294 296 297 297 294 293 294
199 201 203 203 204 207 209 210 213 213 212 212 212 212 212 209 209 213 219 222 221 221 223 223 224 228 234 239 244 247 249 252 254 259 264 261 255 255 265 273 271 267 265 266 266 266 267 268 270 271 273 274 276 276 276 277 279 281 284 287 289 290 290 290 289 289 290 290 290 289 290 290 290 290 291 292 294 294 294 295 295 294 294 295 296
203 206 206 206 207 208 209 211 214 214 213 212 212 211 210 207 208 214 218 220 219 220 222 223 226 232 238 243 247 249 249 251 255 261 268 269 262 260 267 273 271 267 265 264 264 264 265 267 269 271 273 274 275 275 275 277 279 283 286 288 289 290 290 289 288 288 289 288 287 287 288 289 290 291 292 293 294 293 292 292 293 294 296 297 299
204 206 207 208 210 210 210 212 214 215 214 213 212 211 209 207 210 214 216 217 218 220 223 226 230 235 241 246 249 250 251 255 260 264 267 269 266 265 267 268 266 265 265 265 265 265 266 268 271 272 273 274 275 275 276 278 282 285 288 289 291 292 291 290 290 290 289 286 284 284 287 290 291 293 293 294 293 292 291 292 294 296 297 299 301
207 206 206 208 210 212 213 215 217 217 216 214 212 210 208 208 210 212 215 216 218 221 225 228 232 237 242 246 249 251 253 258 262 265 267 268 266 265 264 263 263 264 266 267 268 268 269 270 271 272 273 274 275 277 279 283 285 287 288 290 292 292 291 290 290 290 288 286 284 285 289 292 293 293 293 293 293 292 292 294 295 296 298 301 302
207 206 206 206 206 209 213 216 218 217 215 214 211 208 208 209 209 211 213 215 219 223 227 230 234 239 243 247 249 251 256 260 262 265 266 265 264 263 262 262 263 265 267 269 270 270 270 270 271 273 274 276 278 281 284 286 286 287 289 291 291 291 290 291 289 287 286 287 288 289 291 293 292 292 292 292 292 292 293 293 294 296 300 302 302
205 207 208 206 204 206 210 214 216 215 213 211 209 207 208 208 208 209 212 215 220 225 228 232 236 240 244 247 248 250 255 259 262 264 264 263 263 263 262 264 265 266 268 268 268 268 269 270 273 274 276 278 280 283 285 286 287 288 290 290 290 289 289 290 288 286 288 290 290 291 292 292 292 291 292 292 292 293 293 293 294 297 300 301 301
201 208 212 210 206 206 209 212 213 213 211 208 206 207 207 206 206 207 211 215 220 225 229 231 234 237 242 246 248 250 255 259 260 262 262 262 262 263 264 265 266 266 266 266 267 268 270 273 275 277 278 281 284 285 286 287 288 289 289 289 289 289 289 289 289 289 290 292 293 293 293 292 292 292 292 292 293 293 294 295 296 297 299 300 301
212 224 221 212 207 206 209 211 212 212 211 208 205 205 205 203 204 207 211 216 220 225 228 230 232 236 241 245 249 253 256 257 258 259 260 261 262 263 264 264 264 264 265 266 268 271 273 275 278 280 282 284 286 286 287 287 287 288 289 289 289 288 288 289 289 289 290 292 293 294 292 292 292 293 293 294 294 295 295 296 297 299 300 300 301
235 252 241 220 211 206 206 209 211 211 210 206 204 203 201 200 204 208 212 217 221 225 229 232 235 239 242 246 251 254 254 255 256 258 259 260 260 260 260 260 262 263 266 268 271 274 276 277 279 281 283 284 285 286 286 286 287 288 289 290 289 289 288 288 288 289 290 291 292 292 291 292 293 294 295 296 296 296 297 298 299 299 300 301 301
239 252 251 232 219 212 209 208 208 209 208 205 203 200 198 200 205 210 213 217 221 226 231 235 238 241 243 246 249 250 251 253 255 256 257 257 257 258 258 260 263 265 268 272 274 277 278 280 281 282 283 284 285 285 286 286 288 290 291 291 292 291 290 290 289 290 290 291 291 291 291 292 294 295 296 297 297 298 299 300 300 300 300 301 301
238 242 242 234 223 218 215 210 206 206 206 203 200 197 197 200 205 209 213 217 222 228 234 238 241 242 243 243 244 245 248 251 252 253 254 254 255 257 259 262 266 269 272 275 276 278 280 281 282 283 284 285 286 286 287 288 290 292 293 293 293 292 291 291 290 291 292 292 292 292 293 294 295 296 297 297 298 298 299 300 300 299 299 299 299
238 239 236 229 220 215 213 211 207 204 202 198 194 191 192 197 203 208 214 220 225 231 236 239 240 240 240 240 242 245 248 249 249 251 253 255 258 261 264 267 270 272 274 275 277 279 281 282 284 285 286 287 287 288 289 290 292 293 293 293 292 292 291 291 291 292 292 292 292 293 295 296 296 297 297 297 298 298 299 299 298 298 298 298 298
Height
5801 5803 5806 5810 5814 5818 5821 5824 5826 5828 5831 5833 5834 5834 5835 5835 5835 5836 5838 5839 5840 5839 5839 5839 5838 5838 5839 5839 5839 5839 5838 5837 5836 5836 5836 5835 5835 5835 5834 5834 5835 5835 5834 5833 5833 5833 5834 5834 5834 5834 5833 5833 5832 5832 5831 5831 5830 5830 5830 5829 5829 5828 5827 5827 5826 5826 5826 5825 5825 5824 5823 5822 5822 5821 5820 5819 5818 5817 5816 5814 5813 5811 5808 5807 5805
5796 5798 5802 5805 5808 5811 5815 5819 5823 5825 5827 5829 5830 5831 5831 5832 5832 5833 5835 5836 5837 5836 5836 5835 5834 5835 5836 5836 5836 5836 5835 5835 5834 5834 5834 5833 5833 5832 5832 5832 5832 5833 5833 5832 5831 5832 5832 5832 5832 5833 5832 5831 5831 5830 5830 5829 5828 5828 5828 5827 5827 5826 5825 5825 5825 5825 5825 5824 5824 5823 5822 5821 5820 5819 5819 5818 5817 5816 5814 5813 5810 5808 5807 5805 5802
5791 5794 5797 5801 5804 5806 5810 5814 5819 5822 5825 5826 5827 5828 5829 5829 5830 5831 5832 5833 5833 5833 5833 5832 5832 5833 5834 5834 5834 5833 5832 5832 5832 5832 5831 5831 5830 5830 5830 5829 5830 5830 5830 5830 5830 5830 5831 5831 5831 5831 5830 5830 5829 5828 5828 5827 5827 5826 5826 5825 5825 5825 5824 5823 5823 5824 5823 5823 5822 5821 5820 5820 5819 5818 5817 5816 5815 5814 5813 5811 5809 5807 5805 5802 5800
5787 5791 5794 5798 5801 5803 5806 5810 5814 5819 5822 5822 5823 5825 5826 5826 5827 5828 5829 5830 5830 5830 5829 5829 5829 5830 5831 5831 5831 5830 5830 5830 5830 5829 5829 5829 5828 5828 5827 5827 5827 5827 5827 5827 5828 5828 5828 5829 5828 5828 5828 5827 5826 5826 5825 5825 5825 5825 5824 5823 5823 5823 5822 5822 5822 5822 5822 5821 5821 5820 5819 5818 5817 5817 5816 5815 5814 5812 5811 5809 5807 5805 5803 5801 5799
5783 5787 5791 5794 5797 5800 5803 5806 5811 5815 5818 5820 5821 5822 5822 5822 5823 5824 5825 5826 5827 5826 5826 5826 5827 5828 5828 5828 5828 5827 5827 5827 5827 5827 5827 5826 5826 5825 5825 5825 5824 5824 5824 5824 5825 5825 5825 5826 5825 5825 5825 5824 5824 5823 5823 5824 5824 5823 5822 5822 5821 5821 5821 5821 5821 5820 5820 5820 5819 5818 5817 5817 5816 5815 5814 5813 5812 5810 5809 5807 5805 5803 5801 5799 5797
5778 5782 5787 5791 5794 5797 5799 5803 5807 5812 5815 5817 5818 5818 5818 5819 5820 5820 5822 5823 5823 5823 5823 5823 5824 5825 5826 5826 5825 5825 5824 5824 5825 5825 5825 5824 5823 5823 5822 5822 5822 5822 5822 5822 5822 5822 5822 5823 5823 5822 5822 5822 5821 5821 5821 5822 5822 5821 5821 5820 5820 5820 5820 5819 5819 5819 5819 5819 5818 5817 5816 5815 5815 5814 5813 5811 5810 5808 5807 5805 5803 5801 5799 5797 5795
5773 5777 5781 5785 5789 5792 5796 5800 5805 5809 5812 5814 5814 5814 5814 5815 5816 5817 5818 5819 5819 5820 5820 5820 5821 5822 5823 5823 5822 5822 5822 5822 5822 5823 5822 5821 5821 5820 5820 5820 5820 5819 5819 5819 5819 5819 5820 5820 5820 5820 5819 5819 5819 5819 5819 5819 5819 5819 5819 5819 5818 5818 5818 5818 5818 5818 5817 5817 5816 5815 5814 5814 5813 5812 5811 5809 5807 5806 5805 5803 5802 5800 5798 5795 5793
5768 5771 5775 5780 5784 5788 5792 5797 5802 5805 5808 5810 5810 5810 5811 5811 5812 5813 5814 5815 5816 5816 5817 5817 5818 5819 5820 5820 5820 5820 5819 5820 5820 5820 5819 5819 5818 5818 5818 5818 5817 5817 5817 5817 5817 5817 5817 5818 5818 5817 5817 5817 5817 5816 5817 5817 5817 5817 5817 5817 5817 5817 5817 5816 5816 5816 5816 5815 5815 5814 5813 5812 5811 5810 5809 5807 5806 5804 5803 5802 5800 5798 5796 5793 5790
5764 5767 5771 5775 5780 5785 5790 5795 5798 5801 5804 5806 5806 5806 5807 5808 5808 5809 5811 5811 5812 5813 5813 5814 5815 5816 5817 5817 5817 5817 5817 5817 5818 5818 5817 5816 5816 5816 5816 5816 5816 5815 5815 5815 5814 5815 5815 5815 5815 5815 5815 5815 5814 5814 5814 5814 5814 5815 5815 5815 5815 5815 5815 5815 5814 5815 5814 5814 5813 5813 5812 5811 5810 5809 5807 5806 5804 5802 5801 5799 5797 5796 5794 5791 5788
5760 5764 5768 5773 5778 5783 5788 5791 5794 5797 5800 5801 5801 5803 5804 5804 5805 5806 5807 5808 5809 5810 5810 5811 5812 5813 5814 5814 5815 5815 5815 5815 5815 5815 5814 5814 5814 5814 5814 5814 5813 5813 5813 5813 5813 5813 5813 5812 5812 5812 5811 5812 5812 5811 5812 5812 5812 5812 5813 5813 5813 5813 5813 5813 5813 5813 5813 5812 5812 5811 5810 5809 5808 5807 5806 5804 5803 5801 5799 5797 5796 5794 5792 5789 5786
5757 5761 5765 5770 5775 5779 5783 5786 5789 5793 5795 5796 5798 5800 5801 5802 5802 5803 5804 5805 5806 5806 5807 5809 5810 5810 5811 5812 5813 5813 5813 5813 5813 5813 5812 5812 5811 5812 5812 5812 5811 5811 5811 5811 5811 5811 5810 5810 5810 5809 5809 5809 5809 5809 5809 5810 5810 5811 5811 5811 5811 5811 5811 5811 5811 5811 5811 5810 5810 5809 5808 5808 5807 5805 5804 5802 5801 5799 5797 5795 5794 5792 5789 5787 5784
5753 5757 5762 5766 5770 5774 5777 5781 5785 5789 5791 5793 5795 5797 5798 5799 5799 5800 5801 5801 5802 5803 5805 5806 5807 5808 5809 5810 5810 5810 5810 5810 5810 5810 5810 5810 5809 5809 5810 5810 5810 5809 5809 5809 5809 5808 5808 5808 5808 5807 5807 5807 5807 5807 5807 5808 5808 5809 5809 5809 5809 5809 5809 5809 5809 5809 5809 5808 5807 5807 5806 5806 5805 5803 5802 5800 5798 5796 5795 5793 5792 5790 5787 5785 5783
5749 5753 5757 5762 5765 5769 5773 5777 5782 5785 5787 5789 5791 5793 5794 5795 5796 5797 5797 5798 5799 5800 5802 5803 5804 5805 5806 5807 5808 5808 5808 5808 5808 5808 5808 5808 5808 5808 5808 5808 5808 5807 5807 5807 5806 5806 5806 5806 5806 5805 5805 5805 5805 5805 5805 5806 5806 5806 5807 5806 5806 5806 5807 5807 5807 5807 5806 5806 5805 5804 5804 5803 5802 5801 5799 5798 5796 5794 5792 5791 5789 5787 5785 5783 5781
5745 5749 5753 5757 5761 5766 5770 5774 5777 5781 5783 5784 5786 5789 5791 5792 5793 5794 5794 5795 5796 5798 5799 5801 5802 5803 5804 5805 5805 5805 5805 5806 5806 5806 5806 5806 5806 5806 5806 5806 5805 5805 5805 5805 5805 5804 5804 5804 5804 5803 5803 5803 5803 5803 5803 5804 5804 5804 5804 5804 5805 5805 5805 5805 5805 5805 5804 5804 5803 5802 5802 5801 5800 5799 5797 5795 5793 5792 5790 5789 5787 5785 5783 5781 5779
5741 5745 5749 5753 5758 5763 5767 5770 5773 5776 5777 5779 5782 5785 5787 5789 5790 5790 5791 5792 5794 5795 5797 5798 5799 5800 5801 5802 5802 5803 5803 5803 5803 5804 5804 5804 5804 5804 5804 5804 5803 5803 5803 5803 5803 5802 5802 5802 5802 5801 5801 5802 5802 5802 5802 5802 5802 5802 5802 5802 5803 5803 5803 5804 5803 5803 5802 5802 5801 5800 5800 5799 5798 5796 5795 5793 5791 5789 5788 5786 5785 5783 5780 5778 5776
5736 5740 5745 5750 5755 5759 5762 5766 5769 5771 5773 5775 5778 5781 5784 5786 5786 5787 5788 5790 5791 5793 5794 5795 5796 5798 5799 5799 5799 5800 5801 5801 5801 5802 5802 5802 5802 5802 5802 5802 5802 5802 5801 5801 5800 5800 5800 5800 5801 5801 5800 5800 5800 5800 5800 5800 5799 5800 5800 5800 5800 5801 5801 5801 5801 5800 5800 5800 5799 5798 5797 5796 5795 5794 5793 5791 5789 5787 5785 5784 5782 5781 5778 5776 5773
5733 5737 5742 5747 5751 5755 5758 5762 5765 5767 5769 5772 5775 5778 5780 5782 5782 5783 5785 5787 5789 5790 5791 5793 5794 5795 5796 5796 5797 5798 5799 5799 5799 5799 5800 5800 5800 5800 5800 5800 5800 5800 5799 5799 5798 5798 5798 5798 5799 5799 5799 5798 5798 5798 5798 5798 5798 5798 5798 5798 5798 5799 5799 5799 5799 5798 5798 5797 5797 5796 5795 5794 5793 5792 5790 5789 5787 5785 5783 5781 5780 5778 5776 5774 5771
5730 5735 5739 5743 5747 5750 5754 5758 5761 5763 5766 5769 5772 5774 5776 5777 5778 5780 5782 5785 5786 5787 5789 5790 5791 5792 5793 5794 5795 5796 5796 5796 5797 5797 5798 5798 5798 5798 5798 5798 5798 5798 5797 5797 5796 5796 5796 5796 5797 5797 5797 5796 5796 5796 5796 5796 5796 5796 5796 5796 5796 5797 5797 5797 5796 5796 5796 5795 5795 5794 5793 5792 5791 5789 5788 5786 5785 5783 5781 5779 5777 5776 5774 5771 5769
5726 5731 5735 5738 5742 5745 5749 5753 5757 5760 5763 5765 5767 5769 5771 5772 5774 5777 5780 5782 5783 5784 5786 5787 5789 5790 5791 5791 5792 5793 5794 5794 5795 5795 5796 5796 5796 5796 5795 5796 5796 5796 5795 5795 5794 5794 5794 5794 5794 5794 5794 5794 5794 5794 5794 5794 5794 5794 5794 5794 5794 5795 5795 5795 5794 5794 5794 5793 5792 5791 5790 5789 5788 5787 5786 5784 5783 5781 5779 5777 5775 5773 5771 5768 5766
5722 5727 5731 5734 5737 5741 5746 5750 5753 5756 5759 5761 5762 5764 5767 5769 5771 5774 5777 5778 5779 5781 5783 5785 5786 5787 5788 5789 5790 5791 5792 5792 5792 5793 5793 5793 5794 5793 5793 5793 5794 5793 5793 5792 5792 5792 5792 5792 5792 5792 5792 5791 5791 5791 5791 5791 5791 5791 5791 5792 5792 5793 5793 5793 5792 5792 5791 5790 5790 5789 5788 5787 5786 5785 5783 5782 5780 5778 5777 5775 5773 5770 5768 5765 5763
5719 5723 5726 5729 5733 5738 5742 5746 5749 5751 5754 5756 5758 5761 5763 5766 5769 5772 5774 5775 5777 5778 5780 5782 5783 5784 5785 5786 5788 5789 5789 5789 5790 5790 5790 5791 5791 5791 5791 5791 5791 5791 5790 5790 5790 5790 5789 5789 5790 5789 5789 5789 5789 5789 5789 5789 5789 5789 5789 5790 5790 5791 5791 5791 5790 5789 5789 5788 5787 5786 5785 5784 5783 5782 5780 5779 5777 5776 5774 5772 5770 5768 5765 5763 5760
5715 5720 5723 5726 5730 5734 5737 5741 5744 5746 5749 5751 5754 5757 5760 5763 5766 5768 5770 5772 5774 5775 5778 5779 5781 5782 5783 5784 5785 5786 5787 5787 5787 5788 5788 5788 5789 5789 5789 5789 5788 5788 5788 5787 5787 5787 5787 5787 5787 5787 5787 5786 5786 5787 5787 5787 5787 5787 5788 5788 5789 5789 5789 5788 5787 5787 5786 5785 5785 5784 5783 5782 5780 5779 5778 5776 5774 5773 5771 5769 5767 5765 5763 5760 5757
5712 5716 5719 5723 5727 5730 5733 5736 5739 5742 5745 5747 5750 5753 5756 5760 5762 5764 5767 5769 5771 5773 5774 5776 5778 5779 5780 5782 5783 5784 5784 5784 5785 5785 5785 5786 5786 5786 5786 5786 5786 5785 5785 5785 5785 5785 5785 5784 5784 5784 5784 5784 5784 5784 5785 5785 5785 5785 5786 5787 5787 5787 5786 5785 5785 5784 5783 5783 5782 5781 5780 5779 5777 5776 5775 5773 5771 5770 5768 5766 5763 5761 5759 5757 5754
5709 5713 5716 5719 5722 5725 5728 5731 5735 5738 5740 5743 5746 5750 5753 5756 5758 5761 5764 5766 5768 5770 5771 5773 5775 5776 5777 5779 5780 5781 5781 5782 5783 5783 5783 5783 5784 5783 5783 5783 5783 5783 5783 5783 5783 5782 5782 5782 5782 5781 5781 5782 5782 5782 5783 5783 5783 5784 5784 5784 5784 5784 5783 5783 5782 5781 5781 5780 5779 5778 5777 5775 5774 5773 5772 5770 5768 5766 5764 5762 5760 5758 5756 5753 5751
5705 5709 5711 5714 5717 5720 5723 5728 5731 5734 5736 5739 5743 5746 5749 5752 5755 5758 5760 5763 5765 5767 5769 5771 5772 5773 5775 5776 5778 5778 5779 5780 5780 5780 5780 5781 5781 5781 5780 5780 5781 5781 5780 5780 5780 5780 5779 5779 5779 5779 5779 5779 5780 5780 5780 5780 5781 5781 5782 5782 5781 5781 5780 5780 5779 5778 5778 5777 5776 5775 5773 5772 5770 5769 5768 5767 5764 5762 5761 5758 5756 5754 5752 5750 5747
5701 5704 5707 5711 5714 5716 5720 5725 5728 5730 5733 5736 5739 5742 5745 5748 5752 5755 5757 5759 5762 5764 5766 5768 5769 5771 5772 5773 5775 5776 5776 5777 5778 5778 5778 5778 5778 5778 5778 5778 5778 5778 5778 5778 5778 5777 5777 5776 5776 5777 5777 5777 5778 5778 5778 5778 5778 5779 5779 5779 5778 5778 5777 5777 5776 5775 5774 5773 5772 5771 5769 5768 5767 5766 5765 5763 5760 5758 5757 5754 5752 5750 5748 5746 5744
5697 5701 5704 5708 5712 5714 5718 5721 5723 5726 5729 5732 5735 5739 5742 5745 5749 5751 5754 5756 5759 5761 5763 5765 5766 5768 5769 5770 5772 5773 5773 5774 5775 5775 5775 5775 5775 5776 5776 5776 5776 5776 5776 5775 5775 5775 5774 5774 5774 5774 5775 5775 5775 5775 5775 5775 5776 5776 5776 5776 5775 5775 5774 5773 5772 5772 5771 5770 5768 5767 5766 5764 5763 5762 5760 5759 5756 5754 5752 5750 5748 5746 5744 5742 5740
5693 5698 5702 5707 5711 5713 5715 5717 5720 5722 5725 5728 5731 5735 5738 5742 5745 5748 5751 5754 5756 5758 5760 5762 5763 5765 5766 5767 5769 5770 5771 5771 5772 5773 5773 5772 5773 5773 5773 5773 5773 5773 5773 5773 5773 5772 5772 5772 5772 5772 5772 5772 5772 5772 5772 5773 5773 5774 5774 5773 5772 5771 5771 5770 5769 5769 5768 5766 5764 5763 5762 5761 5759 5758 5756 5754 5752 5750 5748 5746 5744 5742 5740 5738 5736
5690 5695 5700 5705 5708 5710 5712 5714 5717 5719 5722 5725 5728 5731 5735 5739 5742 5744 5747 5750 5753 5755 5757 5759 5760 5761 5763 5764 5765 5766 5768 5768 5769 5770 5770 5770 5770 5770 5770 5771 5771 5771 5770 5770 5770 5770 5770 5770 5769 5769 5770 5770 5770 5770 5770 5770 5771 5771 5770 5770 5769 5768 5767 5767 5766 5765 5764 5762 5760 5759 5758 5756 5755 5753 5752 5750 5748 5746 5744 5742 5740 5738 5736 5734 5731
5687 5692 5697 5702 5706 5708 5710 5711 5714 5716 5719 5722 5725 5729 5733 5736 5739 5741 5745 5748 5750 5752 5754 5755 5757 5758 5759 5761 5762 5764 5765 5766 5766 5766 5767 5767 5767 5768 5768 5768 5768 5768 5768 5768 5768 5768 5768 5767 5767 5767 5767 5767 5767 5768 5767 5767 5767 5767 5767 5766 5765 5765 5764 5763 5763 5762 5760 5758 5756 5755 5753 5752 5750 5748 5747 5746 5744 5742 5740 5738 5736 5733 5731 5729 5727
5685 5690 5694 5698 5702 5704 5706 5708 5711 5713 5716 5720 5723 5727 5730 5733 5736 5739 5742 5745 5747 5749 5751 5752 5753 5755 5756 5758 5759 5761 5762 5763 5763 5763 5764 5764 5765 5765 5765 5765 5766 5765 5765 5765 5766 5766 5765 5765 5765 5765 5765 5765 5765 5765 5764 5764 5764 5764 5763 5763 5762 5761 5760 5760 5759 5757 5756 5754 5752 5750 5748 5747 5745 5743 5742 5741 5739 5737 5736 5734 5731 5728 5726 5724 5721
5682 5686 5690 5694 5698 5700 5702 5705 5708 5711 5714 5717 5721 5724 5727 5730 5733 5736 5739 5741 5743 5745 5747 5749 5750 5751 5753 5755 5757 5758 5759 5759 5760 5760 5761 5762 5762 5762 5762 5763 5763 5763 5763 5763 5763 5763 5763 5763 5763 5763 5762 5762 5762 5761 5761 5761 5761 5760 5760 5759 5758 5757 5757 5756 5754 5753 5751 5749 5747 5745 5744 5742 5740 5738 5737 5736 5734 5732 5731 5729 5726 5724 5721 5718 5716
5680 5684 5687 5691 5694 5697 5700 5703 5706 5708 5711 5715 5718 5721 5724 5727 5730 5733 5735 5738 5740 5742 5744 5745 5746 5748 5750 5752 5754 5754 5755 5756 5757 5757 5758 5759 5760 5760 5760 5760 5760 5760 5760 5761 5761 5761 5760 5760 5760 5760 5760 5759 5759 5758 5758 5758 5757 5757 5756 5755 5754 5754 5753 5752 5750 5749 5747 5745 5743 5741 5739 5738 5736 5734 5732 5730 5729 5728 5726 5724 5722 5720 5717 5713 5711
5676 5680 5684 5688 5692 5695 5698 5701 5704 5706 5709 5712 5715 5718 5720 5723 5726 5729 5732 5734 5736 5738 5740 5742 5743 5745 5748 5749 5750 5751 5752 5752 5753 5754 5755 5756 5757 5757 5757 5757 5758 5758 5758 5758 5758 5758 5758 5758 5758 5758 5757 5756 5756 5755 5755 5754 5754 5753 5753 5752 5751 5750 5750 5748 5747 5745 5743 5741 5739 5736 5735 5733 5732 5730 5727 5724 5723 5722 5721 5720 5718 5715 5712 5709 5707
5671 5675 5680 5684 5688 5692 5695 5698 5700 5703 5706 5708 5711 5713 5716 5719 5722 5725 5728 5730 5732 5734 5736 5738 5740 5742 5745 5746 5747 5748 5748 5749 5750 5751 5752 5753 5754 5754 5754 5755 5755 5756 5756 5756 5756 5756 5755 5755 5755 5755 5754 5753 5753 5752 5752 5751 5750 5750 5749 5748 5747 5746 5745 5744 5743 5741 5739 5737 5735 5732 5730 5729 5727 5725 5722 5719 5718 5717 5716 5715 5713 5710 5708 5705 5703
5669 5674 5678 5682 5686 5690 5693 5695 5698 5700 5703 5705 5707 5710 5713 5716 5719 5722 5724 5726 5728 5731 5733 5735 5737 5739 5741 5743 5744 5744 5745 5745 5746 5748 5749 5750 5751 5751 5752 5752 5753 5753 5753 5753 5753 5753 5752 5752 5751 5751 5751 5750 5750 5749 5748 5747 5746 5746 5745 5745 5744 5742 5741 5740 5738 5737 5735 5733 5731 5728 5727 5725 5723 5720 5717 5715 5714 5713 5711 5710 5708 5705 5703 5701 5699
5668 5673 5677 5680 5684 5687 5689 5692 5694 5697 5699 5702 5704 5706 5709 5712 5715 5718 5721 5723 5725 5728 5730 5732 5734 5736 5738 5739 5740 5741 5741 5742 5743 5744 5745 5747 5747 5748 5749 5750 5750 5750 5750 5750 5749 5749 5749 5748 5748 5747 5747 5746 5746 5746 5745 5743 5742 5742 5742 5741 5740 5739 5737 5736 5734 5733 5731 5729 5727 5724 5723 5721 5718 5715 5713 5711 5710 5709 5707 5705 5703 5700 5698 5697 5695
5665 5669 5673 5677 5680 5683 5686 5688 5691 5693 5695 5698 5700 5703 5706 5709 5712 5715 5718 5720 5722 5725 5728 5729 5731 5733 5734 5735 5736 5737 5738 5739 5740 5741 5742 5744 5744 5745 5746 5747 5747 5747 5746 5746 5746 5746 5745 5745 5744 5743 5743 5743 5742 5742 5741 5739 5739 5739 5738 5737 5736 5735 5733 5732 5731 5729 5727 5725 5723 5720 5718 5717 5714 5712 5709 5708 5706 5704 5702 5700 5698 5695 5694 5692 5690
5663 5668 5672 5675 5677 5680 5683 5685 5687 5689 5691 5694 5696 5699 5701 5705 5708 5711 5714 5716 5719 5722 5725 5726 5728 5729 5730 5731 5733 5734 5735 5737 5738 5739 5739 5741 5742 5742 5743 5744 5744 5743 5743 5743 5742 5742 5742 5741 5740 5739 5739 5739 5739 5738 5737 5735 5735 5735 5734 5733 5732 5731 5729 5728 5726 5725 5723 5721 5718 5716 5713 5712 5710 5708 5706 5704 5702 5700 5697 5695 5693 5691 5690 5688 5686
5662 5666 5669 5672 5675 5677 5680 5682 5684 5686 5688 5690 5692 5695 5698 5701 5704 5708 5710 5713 5717 5719 5721 5723 5724 5725 5726 5728 5729 5731 5733 5734 5734 5735 5735 5736 5738 5739 5740 5740 5740 5740 5739 5739 5738 5738 5737 5737 5736 5735 5735 5735 5735 5734 5733 5732 5731 5730 5730 5729 5728 5726 5725 5723 5722 5721 5719 5716 5714 5711 5709 5707 5705 5703 5702 5700 5698 5696 5693 5691 5689 5687 5686 5684 5681
5661 5664 5667 5670 5672 5675 5677 5680 5681 5683 5685 5687 5689 5692 5695 5698 5701 5704 5707 5710 5713 5716 5717 5719 5720 5721 5723 5725 5726 5728 5729 5730 5730 5731 5731 5732 5734 5735 5735 5736 5736 5735 5735 5734 5734 5733 5733 5733 5732 5732 5731 5731 5731 5730 5729 5728 5727 5726 5725 5724 5723 5722 5720 5718 5718 5717 5714 5711 5709 5706 5704 5703 5701 5699 5697 5695 5693 5691 5689 5687 5685 5683 5681 5679 5677
5659 5662 5665 5667 5670 5672 5674 5676 5678 5680 5682 5684 5686 5689 5692 5695 5698 5701 5704 5707 5709 5711 5713 5715 5716 5718 5720 5722 5722 5723 5725 5726 5727 5727 5728 5729 5730 5731 5731 5732 5731 5731 5730 5730 5729 5729 5729 5729 5728 5728 5727 5727 5727 5726 5725 5724 5723 5722 5720 5719 5717 5716 5715 5713 5713 5712 5710 5707 5704 5702 5700 5699 5696 5695 5693 5691 5689 5687 5685 5682 5680 5679 5677 5675 5673
5655 5659 5662 5664 5666 5668 5670 5672 5674 5677 5679 5681 5684 5686 5689 5691 5695 5698 5700 5703 5705 5707 5709 5711 5714 5716 5718 5719 5719 5719 5721 5722 5723 5723 5724 5725 5726 5726 5727 5727 5727 5726 5726 5725 5725 5725 5725 5724 5724 5723 5723 5723 5722 5721 5721 5720 5718 5716 5715 5713 5712 5711 5710 5709 5708 5706 5704 5702 5700 5698 5697 5695 5692 5690 5688 5686 5684 5682 5680 5678 5677 5675 5673 5671 5670
5650 5653 5657 5660 5662 5663 5665 5668 5670 5672 5675 5677 5680 5682 5685 5688 5691 5693 5696 5699 5701 5703 5705 5708 5711 5713 5715 5715 5715 5716 5717 5718 5719 5719 5720 5721 5722 5722 5723 5723 5723 5722 5722 5721 5721 5720 5720 5720 5720 5719 5719 5718 5718 5717 5716 5715 5713 5711 5710 5709 5708 5706 5705 5704 5702 5701 5699 5697 5695 5694 5692 5690 5688 5686 5684 5682 5680 5678 5676 5675 5673 5672 5670 5668 5666
5646 5648 5650 5653 5656 5658 5659 5661 5664 5666 5669 5672 5675 5678 5680 5683 5686 5689 5692 5695 5697 5699 5702 5705 5708 5710 5711 5711 5711 5712 5713 5714 5715 5715 5716 5717 5718 5718 5719 5719 5719 5718 5718 5717 5716 5716 5716 5716 5715 5715 5714 5713 5713 5712 5711 5709 5707 5705 5705 5704 5703 5702 5700 5698 5697 5696 5694 5692 5691 5689 5687 5685 5682 5681 5679 5678 5675 5674 5672 5671 5669 5667 5665 5663 5661
5641 5644 5646 5647 5649 5652 5654 5656 5659 5661 5664 5667 5670 5672 5675 5677 5680 5684 5687 5690 5693 5695 5699 5702 5704 5706 5707 5707 5707 5708 5709 5710 5711 5712 5712 5713 5714 5714 5715 5715 5714 5714 5713 5713 5712 5712 5712 5712 5711 5710 5709 5708 5708 5707 5705 5703 5701 5701 5700 5699 5699 5697 5695 5694 5692 5690 5688 5687 5686 5684 5682 5680 5678 5676 5675 5673 5671 5670 5668 5667 5665 5663 5661 5659 5657
5639 5642 5644 5644 5644 5646 5649 5651 5654 5656 5658 5660 5662 5663 5666 5670 5675 5678 5682 5686 5689 5692 5696 5699 5701 5702 5704 5704 5704 5705 5706 5706 5707 5708 5709 5710 5710 5711 5711 5711 5710 5710 5709 5709 5708 5708 5708 5708 5707 5705 5704 5703 5703 5701 5699 5697 5696 5696 5696 5695 5694 5693 5691 5689 5687 5686 5684 5683 5682 5680 5677 5675 5673 5671 5670 5669 5667 5666 5664 5662 5661 5659 5657 5655 5653
5638 5638 5639 5641 5642 5642 5643 5646 5649 5651 5653 5656 5658 5658 5660 5665 5671 5675 5679 5683 5687 5690 5693 5695 5697 5699 5700 5701 5702 5702 5703 5704 5704 5705 5706 5707 5707 5707 5707 5707 5706 5706 5705 5705 5705 5704 5704 5703 5702 5701 5700 5699 5697 5696 5694 5692 5691 5691 5691 5691 5690 5688 5687 5685 5683 5681 5680 5679 5678 5676 5673 5670 5668 5667 5666 5664 5662 5661 5659 5658 5656 5654 5652 5650 5648
5637 5636 5636 5637 5640 5641 5643 5646 5650 5652 5654 5657 5658 5658 5659 5664 5669 5673 5677 5681 5684 5686 5689 5691 5693 5695 5696 5698 5698 5699 5700 5701 5702 5702 5703 5703 5704 5704 5703 5703 5702 5702 5701 5701 5700 5700 5699 5698 5697 5696 5695 5693 5692 5690 5689 5687 5686 5686 5686 5686 5684 5683 5682 5680 5679 5677 5676 5675 5673 5671 5668 5666 5664 5663 5661 5659 5658 5656 5654 5653 5652 5649 5648 5646 5644
5634 5633 5632 5633 5636 5639 5642 5645 5647 5649 5651 5655 5656 5655 5658 5663 5668 5671 5674 5678 5680 5683 5685 5688 5690 5691 5692 5694 5695 5696 5697 5698 5698 5699 5699 5700 5700 5700 5700 5699 5698 5697 5697 5696 5695 5694 5693 5693 5692 5691 5690 5688 5687 5685 5684 5683 5682 5681 5681 5680 5679 5678 5677 5675 5674 5672 5671 5670 5668 5666 5664 5662 5660 5658 5657 5655 5653 5651 5650 5648 5647 5645 5643 5641 5639
5631 5629 5628 5630 5632 5635 5638 5641 5644 5646 5650 5654 5655 5655 5657 5662 5666 5668 5671 5674 5677 5680 5682 5684 5686 5688 5689 5691 5692 5693 5694 5694 5695 5695 5696 5696 5696 5696 5696 5695 5694 5693 5692 5691 5690 5689 5689 5688 5687 5686 5685 5683 5682 5680 5679 5678 5678 5677 5676 5675 5674 5673 5672 5670 5669 5667 5666 5664 5663 5661 5659 5658 5656 5654 5652 5650 5649 5647 5646 5644 5642 5640 5638 5636 5634